Location: Washington
(38.8950°N, 77.0370°W)
Time: 11:24:18
(UTC-04:00)

ISS - All Passes

Search period start: 23 October 2017 00:00
Search period end: 02 November 2017 00:00
Orbit: 400 x 408 km, 51.6° (Epoch: 24 October)

Date Brightness Start Highest point End Pass type
(mag) Time Alt. Az. Time Alt. Az. Time Alt. Az.
23 Oct - 08:22:49 10° S 08:25:04 17° SE 08:27:19 10° E daylight
23 Oct - 09:58:09 10° WSW 10:01:18 44° NNW 10:04:25 10° NE daylight
23 Oct - 11:37:03 10° NW 11:38:25 12° NNW 11:39:48 10° N daylight
23 Oct - 14:50:59 10° NNW 14:53:35 21° NNE 14:56:09 10° ENE daylight
23 Oct - 16:27:02 10° WNW 16:30:14 51° SW 16:33:25 10° SE daylight
24 Oct - 09:05:40 10° SW 09:08:55 86° NNW 09:12:10 10° NE daylight
24 Oct - 10:43:40 10° WNW 10:45:47 16° NNW 10:47:54 10° NNE daylight
24 Oct - 13:58:59 10° NNW 14:00:59 15° NNE 14:02:59 10° ENE daylight
24 Oct - 15:34:38 10° NW 15:37:56 76° NE 15:41:10 10° SE daylight
24 Oct - 17:13:45 10° SW 17:13:56 10° SW 17:14:07 10° SW daylight
25 Oct - 08:13:30 10° SSW 08:16:36 44° SE 08:19:43 10° ENE daylight
25 Oct - 09:50:33 10° W 09:53:12 23° NNW 09:55:51 10° NNE daylight
25 Oct - 13:07:06 10° N 13:08:20 12° NNE 13:09:33 10° NE daylight
25 Oct - 14:42:25 10° NW 14:45:31 39° NNE 14:48:36 10° ESE daylight
25 Oct - 16:19:18 10° W 16:21:47 20° SW 16:24:16 10° S daylight
26 Oct - 07:21:48 10° S 07:24:22 22° SE 07:26:57 10° E daylight
26 Oct - 08:57:39 10° W 09:00:41 36° NNW 09:03:44 10° NE daylight
26 Oct - 10:36:50 10° NNW 10:37:54 11° NNW 10:38:58 10° N daylight
26 Oct - 13:50:15 10° NNW 13:53:00 24° NNE 13:55:44 10° E daylight
26 Oct - 15:26:28 10° WNW 15:29:33 40° SW 15:32:38 10° SSE daylight
27 Oct - 06:31:11 10° SE 06:32:12 11° SE 06:33:13 10° ESE visible
27 Oct - 08:05:01 10° WSW 08:08:14 68° NW 08:11:30 10° NE daylight
27 Oct - 09:43:20 10° NW 09:45:12 14° NNW 09:47:05 10° NNE daylight
27 Oct - 12:58:11 10° NNW 13:00:24 17° NNE 13:02:37 10° ENE daylight
27 Oct - 14:33:58 10° NW 14:37:14 85° SW 14:40:30 10° SE daylight
28 Oct - 07:12:41 10° SW 07:15:52 58° SE 07:19:04 10° ENE daylight
28 Oct - 08:50:05 10° WNW 08:52:33 20° NNW 08:55:03 10° NNE daylight
28 Oct - 12:06:13 10° NNW 12:07:43 13° NNE 12:09:13 10° NE daylight
28 Oct - 13:41:38 10° NW 13:44:49 48° NE 13:47:59 10° ESE daylight
28 Oct - 15:18:55 10° W 15:21:00 16° SW 15:23:05 10° S daylight
29 Oct - 06:20:45 10° SSW 06:23:34 28° SE 06:26:23 10° ENE visible
29 Oct - 07:57:04 10° W 07:59:59 30° NNW 08:02:55 10° NE daylight
29 Oct - 09:36:36 10° NNW 09:37:16 10° N 09:37:56 10° N daylight
29 Oct - 11:14:34 10° N 11:14:58 10° N 11:15:22 10° NNE daylight
29 Oct - 12:49:25 10° NNW 12:52:18 28° NNE 12:55:10 10° E daylight
29 Oct - 14:25:49 10° WNW 14:28:45 31° SW 14:31:41 10° SSE daylight
30 Oct - 05:29:32 10° SSE 05:31:20 14° SE 05:33:09 10° E visible
30 Oct - 07:04:17 10° WSW 07:07:28 54° NW 07:10:40 10° NE visible
30 Oct - 08:42:53 10° NW 08:44:31 13° NNW 08:46:09 10° NNE daylight
30 Oct - 11:57:17 10° NNW 11:59:41 19° NNE 12:02:05 10° ENE daylight
30 Oct - 13:33:11 10° WNW 13:36:26 66° SW 13:39:39 10° SE daylight
31 Oct - 06:11:48 10° SW 06:15:02 75° SE 06:18:17 10° NE visible
31 Oct - 07:49:31 10° WNW 07:51:49 18° NNW 07:54:07 10° NNE daylight
31 Oct - 11:05:14 10° NNW 11:06:59 14° NNE 11:08:45 10° NE daylight
31 Oct - 12:40:46 10° NW 12:44:00 60° NE 12:47:13 10° ESE daylight
31 Oct - 14:18:35 10° W 14:20:05 13° SW 14:21:36 10° SSW daylight
01 Nov - 05:19:40 10° SSW 05:22:40 35° SE 05:25:40 10° ENE visible
01 Nov - 06:56:22 10° W 06:59:10 26° NNW 07:01:58 10° NNE visible
01 Nov - 10:13:21 10° N 10:14:13 11° NNE 10:15:06 10° NNE daylight
01 Nov - 11:48:28 10° NW 11:51:28 33° NNE 11:54:28 10° E daylight
01 Nov - 13:25:06 10° WNW 13:27:51 25° SW 13:30:34 10° S daylight
